EW5833 Weather Reports


Display with metric or nautical units.
time (UTC)temp
F
wind
direction
speed
MPH
gust
MPH
rain 1hr
in
rain 24hr
in
rain mn
in
humidity
%
barometer
mb
20240228222819 21 290 7.0 18.0 0.00 0.52 0.52 71 1013.0
20240228222652 21 290 7.0 18.0 0.00 0.52 0.52 71 1013.0
20240228222323 21 0 7.0 21.0 0.00 0.52 0.52 72 1012.9
20240228222048 21 0 7.0 21.0 0.00 0.52 0.52 72 1012.9
20240228221826 21 295 7.0 21.0 0.00 0.52 0.52 72 1012.5
20240228221550 21 295 7.0 21.0 0.00 0.52 0.52 72 1012.5
20240228221044 21 308 7.0 18.0 0.00 0.52 0.52 73 1012.2
20240228220817 21 303 7.0 17.0 0.00 0.52 0.52 75 1012.0
20240228220543 21 303 7.0 17.0 0.00 0.52 0.52 75 1012.0
20240228220318 21 344 8.0 20.0 0.00 0.52 0.52 74 1011.9
20240228220043 21 344 8.0 20.0 0.00 0.52 0.52 74 1011.9
20240228215542 21 229 7.0 20.0 0.00 0.52 0.52 74 1011.9
20240228215316 22 281 6.0 17.0 0.00 0.52 0.52 74 1011.6
20240228215146 22 281 6.0 17.0 0.00 0.52 0.52 74 1011.6
20240228214542 21 296 6.0 17.0 0.00 0.52 0.52 74 1011.4
20240228214318 21 256 7.0 25.0 0.00 0.52 0.52 74 1011.2
20240228214150 21 256 7.0 25.0 0.00 0.52 0.52 74 1011.2
20240228213540 21 282 7.0 25.0 0.00 0.52 0.52 72 1011.1
20240228213040 22 274 7.0 19.0 0.00 0.52 0.52 71 1010.9
20240228212544 21 357 9.0 25.0 0.00 0.52 0.52 73 1010.7
20240228212040 21 261 10.0 25.0 0.00 0.52 0.52 73 1010.6
20240228211819 21 258 8.0 21.0 0.00 0.52 0.52 72 1010.5
20240228211540 21 258 8.0 21.0 0.00 0.52 0.52 72 1010.5
20240228211040 21 313 7.0 20.0 0.00 0.52 0.52 76 1010.5
20240228210815 21 308 7.0 20.0 0.00 0.52 0.52 75 1010.1
20240228210648 21 308 7.0 20.0 0.00 0.52 0.52 75 1010.1
20240228210036 21 291 6.0 21.0 0.00 0.52 0.52 73 1009.7
20240228205536 22 291 8.0 21.0 0.00 0.52 0.52 74 1009.7
20240228205312 21 290 8.0 20.0 0.00 0.52 0.52 73 1009.2
20240228205145 21 290 8.0 20.0 0.00 0.52 0.52 73 1009.2
20240228204541 21 329 8.0 20.0 0.00 0.52 0.52 74 1009.0
20240228204040 21 284 9.0 23.0 0.00 0.52 0.52 75 1008.9
20240228203539 22 303 8.0 23.0 0.00 0.52 0.52 76 1008.7
20240228203316 21 351 8.0 27.0 0.00 0.52 0.52 78 1008.3
20240228203144 21 351 8.0 27.0 0.00 0.52 0.52 78 1008.3
20240228202534 22 339 8.0 27.0 0.00 0.52 0.52 77 1008.1
20240228202032 22 279 7.0 20.0 0.00 0.52 0.52 77 1008.0
20240228201532 22 347 8.0 22.0 0.00 0.52 0.52 79 1007.8
20240228201032 22 290 8.0 22.0 0.00 0.52 0.52 75 1007.4
20240228200811 22 291 7.0 26.0 0.00 0.52 0.52 74 1007.3
20240228200640 22 291 7.0 26.0 0.00 0.52 0.52 74 1007.3
20240228200035 22 321 7.0 26.0 0.00 0.52 0.52 77 1007.1
20240228195537 22 268 7.0 21.0 0.00 0.52 0.52 80 1006.9
20240228195031 22 337 6.0 18.0 0.00 0.52 0.52 83 1006.6
20240228194906 22 285 6.0 21.0 0.00 0.52 0.52 82 1006.3
20240228194830 22 285 6.0 21.0 0.00 0.52 0.52 82 1006.3
20240228194028 23 303 6.0 22.0 0.00 0.52 0.52 79 1006.0
20240228193529 23 302 6.0 22.0 0.00 0.52 0.52 78 1005.7
20240228193032 23 310 7.0 22.0 0.00 0.52 0.52 79 1005.6
20240228192528 23 282 7.0 22.0 0.00 0.52 0.52 78 1005.4
20240228192032 23 317 6.0 22.0 0.00 0.52 0.52 77 1005.2
20240228191801 23 285 8.0 22.0 0.00 0.52 0.52 77 1005.1
20240228191526 23 285 8.0 22.0 0.00 0.52 0.52 77 1005.1
20240228191026 24 290 8.0 20.0 0.00 0.52 0.52 75 1004.8
20240228190530 24 1 7.0 20.0 0.00 0.52 0.52 78 1004.5
20240228190026 24 355 8.0 22.0 0.00 0.52 0.52 77 1004.6
20240228185531 24 251 7.0 22.0 0.00 0.52 0.52 78 1004.3
20240228185026 24 300 7.0 18.0 0.00 0.52 0.52 78 1004.1
20240228184529 24 251 6.0 17.0 0.00 0.52 0.52 79 1004.1
20240228184021 25 294 6.0 17.0 0.00 0.52 0.52 79 1003.8
20240228183752 25 304 7.0 20.0 0.00 0.52 0.52 78 1003.7
20240228183517 25 304 7.0 20.0 0.00 0.52 0.52 78 1003.7
20240228183019 25 294 7.0 20.0 0.00 0.52 0.52 77 1003.4
20240228182522 25 279 7.0 27.0 0.00 0.52 0.52 79 1003.2
20240228182019 25 294 7.0 27.0 0.00 0.52 0.52 79 1003.1
20240228181521 25 277 9.0 27.0 0.00 0.52 0.52 79 1002.9
20240228181013 25 308 7.0 27.0 0.00 0.52 0.52 79 1002.7
20240228180512 25 336 6.0 18.0 0.00 0.52 0.52 80 1002.5
20240228180251 25 294 7.0 18.0 0.00 0.52 0.52 80 1002.3
20240228180016 25 294 7.0 18.0 0.00 0.52 0.52 80 1002.3
20240228175751 25 319 8.0 23.0 0.00 0.52 0.52 80 1002.1
20240228175620 25 319 8.0 23.0 0.00 0.52 0.52 80 1002.1
20240228175347 25 208 7.0 23.0 0.00 0.52 0.52 79 1001.9
20240228175307 25 208 7.0 23.0 0.00 0.52 0.52 79 1001.9
20240228174516 26 288 6.0 16.0 0.00 0.52 0.52 82 1001.9
20240228174010 26 302 6.0 16.0 0.00 0.52 0.52 82 1001.6
20240228173506 26 252 7.0 18.0 0.00 0.52 0.52 83 1001.4
20240228173011 26 301 6.0 21.0 0.00 0.52 0.52 83 1001.1
20240228172520 26 325 6.0 22.0 0.00 0.52 0.52 84 1001.0
20240228172017 27 255 7.0 22.0 0.00 0.52 0.52 84 1000.8
20240228171758 27 256 7.0 18.0 0.00 0.52 0.52 84 1000.6
20240228171510 27 256 7.0 18.0 0.00 0.52 0.52 84 1000.6
20240228171247 27 287 7.0 18.0 0.00 0.52 0.52 84 1000.2
20240228171003 27 287 7.0 18.0 0.00 0.52 0.52 84 1000.2
20240228170500 27 300 7.0 26.0 0.00 0.52 0.52 85 1000.1
20240228170001 27 260 8.0 26.0 0.00 0.52 0.52 85 999.9
20240228165504 27 270 8.0 26.0 0.00 0.52 0.52 85 999.6
20240228165236 27 322 8.0 26.0 0.00 0.52 0.52 85 999.3
20240228165000 27 322 8.0 26.0 0.00 0.52 0.52 85 999.3
20240228164504 27 266 10.0 28.0 0.00 0.52 0.52 85 999.3
20240228163959 27 314 9.0 28.0 0.00 0.52 0.52 84 999.0
20240228163458 28 240 8.0 28.0 0.00 0.52 0.52 85 998.8
20240228163229 28 279 8.0 28.0 0.00 0.52 0.52 85 998.8
20240228162954 28 279 8.0 28.0 0.00 0.52 0.52 85 998.8
20240228162454 28 225 7.0 24.0 0.00 0.52 0.52 87 998.6
20240228162232 28 253 7.0 24.0 0.00 0.52 0.52 88 998.5
20240228161957 28 253 7.0 24.0 0.00 0.52 0.52 88 998.5
20240228161733 28 286 7.0 23.0 0.00 0.52 0.52 88 998.4
20240228161456 28 286 7.0 23.0 0.00 0.52 0.52 88 998.4
20240228160953 28 239 7.0 23.0 0.00 0.52 0.52 90 998.2
20240228160728 28 308 7.0 19.0 0.00 0.52 0.52 91 998.1
20240228160452 28 308 7.0 19.0 0.00 0.52 0.52 91 998.1
20240228155948 29 274 5.0 19.0 0.00 0.52 0.52 91 997.9
20240228155448 29 253 5.0 12.0 0.00 0.52 0.52 94 997.6
20240228155226 29 275 7.0 19.0 0.00 0.52 0.52 94 997.5
20240228154951 29 275 7.0 19.0 0.00 0.52 0.52 94 997.5
20240228154501 29 288 7.0 19.0 0.00 0.52 0.52 94 997.4
20240228154233 30 299 6.0 20.0 0.00 0.52 0.52 95 996.5
20240228153442 30 258 5.0 20.0 0.00 0.52 0.52 96 996.3
20240228152942 30 277 5.0 13.0 0.00 0.52 0.52 97 996.0
20240228152445 30 309 6.0 17.0 0.00 0.52 0.52 97 995.8
20240228151942 30 252 6.0 18.0 0.00 0.52 0.52 98 995.8
20240228151444 30 249 6.0 18.0 0.00 0.52 0.52 98 995.4
20240228150940 30 239 7.0 24.0 0.00 0.52 0.52 99 994.9
20240228150440 31 232 7.0 24.0 0.00 0.52 0.52 99 995.0
20240228150316 31 288 7.0 20.0 0.00 0.52 0.52 100 994.6
20240228150240 31 288 7.0 20.0 0.00 0.52 0.52 100 994.6
20240228145713 31 297 8.0 20.0 0.00 0.52 0.52 100 994.2
20240228145436 31 297 8.0 20.0 0.00 0.52 0.52 100 994.2
20240228145210 32 9 6.0 20.0 0.00 0.52 0.52 100 993.7
20240228144936 32 9 6.0 20.0 0.00 0.52 0.52 100 993.7
20240228144439 32 324 8.0 23.0 0.00 0.52 0.52 100 993.9
20240228144206 32 221 10.0 23.0 0.00 0.52 0.52 100 993.8
20240228143930 32 221 10.0 23.0 0.00 0.52 0.52 100 993.8
20240228143439 32 291 9.0 23.0 0.00 0.52 0.52 100 993.9
20240228143227 33 301 8.0 23.0 0.00 0.52 0.52 100 993.7
20240228142433 33 299 9.0 22.0 0.00 0.52 0.52 100 993.5
20240228142201 33 241 9.0 21.0 0.00 0.52 0.52 100 993.5
20240228142034 33 241 9.0 21.0 0.00 0.52 0.52 100 993.5
20240228141705 34 299 7.0 21.0 0.00 0.52 0.52 100 993.1
20240228141538 34 299 7.0 21.0 0.00 0.52 0.52 100 993.1
20240228140930 34 289 6.0 24.0 0.01 0.52 0.52 100 993.1
20240228140658 35 260 7.0 24.0 0.01 0.52 0.52 100 993.0
20240228140530 35 260 7.0 24.0 0.01 0.52 0.52 100 993.0
20240228140210 35 282 9.0 25.0 0.01 0.52 0.52 100 992.7
20240228135930 35 282 9.0 25.0 0.01 0.52 0.52 100 992.7
20240228135430 35 287 9.0 25.0 0.01 0.52 0.52 100 992.6
20240228134928 36 264 9.0 19.0 0.01 0.52 0.52 100 992.5
20240228134428 36 324 9.0 21.0 0.01 0.52 0.52 99 992.4
20240228133922 37 294 8.0 21.0 0.01 0.52 0.52 99 992.2
20240228133422 37 272 8.0 23.0 0.01 0.52 0.52 99 992.2
20240228132922 38 255 9.0 23.0 0.01 0.52 0.52 99 992.0
20240228132419 40 282 9.0 24.0 0.01 0.52 0.52 99 991.6
20240228132154 42 270 10.0 32.0 0.01 0.52 0.52 99 991.4
20240228131918 42 270 10.0 32.0 0.01 0.52 0.52 99 991.4
20240228131419 44 288 9.0 32.0 0.01 0.52 0.52 99 991.1
20240228131157 49 277 6.0 25.0 0.00 0.51 0.52 100 990.4
20240228130912 49 277 6.0 25.0 0.00 0.51 0.52 100 990.4
20240228130416 52 256 4.0 10.0 0.00 0.51 0.51 100 989.4
20240228125912 52 290 4.0 9.0 0.00 0.51 0.51 100 989.2
20240228125415 52 257 4.0 9.0 0.00 0.51 0.51 100 989.1
20240228124911 53 246 4.0 9.0 0.00 0.51 0.51 100 989.0
20240228124416 53 265 4.0 11.0 0.00 0.51 0.51 100 988.9
20240228123908 53 262 4.0 11.0 0.00 0.51 0.51 100 988.5
20240228123406 53 248 3.0 10.0 0.00 0.51 0.51 100 988.2
20240228123141 54 258 3.0 10.0 0.00 0.51 0.51 100 988.2
20240228122905 54 258 3.0 10.0 0.00 0.51 0.51 100 988.2
20240228122406 54 242 2.0 7.0 0.00 0.51 0.51 100 988.1
20240228121910 54 263 3.0 7.0 0.00 0.51 0.51 100 987.9
20240228121643 55 256 3.0 10.0 0.00 0.51 0.51 100 987.9
20240228121514 55 256 3.0 10.0 0.00 0.51 0.51 100 987.9
20240228120904 55 288 3.0 13.0 0.00 0.51 0.51 100 987.6
20240228120405 55 256 3.0 13.0 0.00 0.51 0.51 100 987.6
20240228120134 56 256 3.0 8.0 0.00 0.51 0.51 100 987.6
20240228120042 56 314 3.0 8.0 0.00 0.51 0.51 100 987.6
20240228120004 56 256 3.0 8.0 0.00 0.51 0.51 100 987.6
20240228115508 56 314 3.0 8.0 0.00 0.51 0.51 100 987.6
20240228114904 56 255 3.0 6.0 0.00 0.51 0.51 100 987.6
20240228114404 56 238 3.0 9.0 0.00 0.51 0.51 100 987.6
20240228114359 56 246 3.0 9.0 0.00 0.51 0.51 100 987.9
20240228114002 56 246 3.0 9.0 0.00 0.51 0.51 100 987.9
20240228113627 56 227 2.0 6.0 0.00 0.51 0.51 100 988.2
20240228113500 56 227 2.0 6.0 0.00 0.51 0.51 100 988.2
20240228113141 56 245 2.0 7.0 0.00 0.51 0.51 100 988.2
20240228112857 56 231 2.0 4.0 0.00 0.51 0.51 100 988.2
20240228112504 56 245 2.0 7.0 0.00 0.51 0.51 100 988.2
20240228112129 56 246 2.0 10.0 0.00 0.51 0.51 100 988.2
20240228112002 56 246 2.0 10.0 0.00 0.51 0.51 100 988.2
20240228111355 56 260 2.0 10.0 0.00 0.51 0.51 100 988.3
20240228110853 56 239 2.0 9.0 0.00 0.51 0.51 100 988.5
20240228110350 56 204 2.0 9.0 0.00 0.51 0.51 100 988.4
20240228105850 56 249 2.0 6.0 0.00 0.51 0.51 100 988.4
20240228105634 56 245 2.0 6.0 0.00 0.51 0.51 100 988.5
20240228105354 56 245 2.0 6.0 0.00 0.51 0.51 100 988.5
20240228105120 56 245 2.0 11.0 0.00 0.51 0.51 100 988.4
20240228104952 56 245 2.0 11.0 0.00 0.51 0.51 100 988.4
20240228104347 56 249 2.0 11.0 0.00 0.51 0.51 100 988.2
20240228103848 56 242 3.0 9.0 0.00 0.51 0.51 100 988.2
20240228103621 56 255 2.0 8.0 0.00 0.51 0.51 100 988.0
20240228103346 56 255 2.0 8.0 0.00 0.51 0.51 100 988.0
20240228102842 56 232 2.0 3.0 0.00 0.51 0.51 100 988.1
20240228102342 56 249 2.0 7.0 0.00 0.51 0.51 100 988.0
20240228101844 56 242 2.0 7.0 0.00 0.51 0.51 100 987.9
20240228101616 56 208 2.0 6.0 0.00 0.51 0.51 100 987.7
20240228101342 56 208 2.0 6.0 0.00 0.51 0.51 100 987.7
20240228100843 56 89 2.0 4.0 0.00 0.51 0.51 100 987.7
20240228100342 56 251 2.0 5.0 0.00 0.51 0.51 100 987.9
20240228095841 56 230 2.0 5.0 0.00 0.51 0.51 100 987.9
20240228095357 56 259 3.0 9.0 0.00 0.51 0.51 100 987.9
20240228095345 56 226 2.0 9.0 0.00 0.51 0.51 100 988.0
20240228094948 56 259 3.0 9.0 0.00 0.51 0.51 100 987.9
20240228094345 56 191 3.0 9.0 0.00 0.51 0.51 100 987.9
20240228093840 56 224 3.0 9.0 0.00 0.51 0.51 100 987.9
20240228093614 56 265 3.0 8.0 0.00 0.51 0.51 100 988.0
20240228093446 56 265 3.0 8.0 0.00 0.51 0.51 100 988.0
20240228092839 56 218 2.0 7.0 0.00 0.51 0.51 100 988.1
20240228092339 56 226 2.0 6.0 0.00 0.51 0.51 100 988.1
20240228092113 55 221 2.0 9.0 0.00 0.51 0.51 100 988.2
20240228091944 55 221 2.0 9.0 0.00 0.51 0.51 100 988.2
20240228091341 55 194 3.0 9.0 0.00 0.51 0.51 100 988.1
20240228090840 55 159 2.0 8.0 0.00 0.51 0.51 100 988.2
20240228090340 54 245 2.0 8.0 0.00 0.51 0.51 100 988.4
20240228085844 53 244 1.0 4.0 0.00 0.51 0.51 100 988.3
20240228085334 53 213 1.0 4.0 0.00 0.51 0.51 100 988.2
20240228085108 53 206 1.0 4.0 0.00 0.51 0.51 100 988.3
20240228084834 53 206 1.0 4.0 0.00 0.51 0.51 100 988.3
20240228084610 52 235 1.0 3.0 0.00 0.51 0.51 100 988.5
20240228084335 52 235 1.0 3.0 0.00 0.51 0.51 100 988.5
20240228083834 53 208 1.0 3.0 0.00 0.51 0.51 100 988.4
20240228083331 52 193 1.0 4.0 0.00 0.51 0.51 100 988.4
20240228083111 52 174 1.0 4.0 0.00 0.51 0.51 100 988.6
20240228082835 52 174 1.0 4.0 0.00 0.51 0.51 100 988.6
20240228082330 51 213 1.0 4.0 0.00 0.51 0.51 100 988.7
20240228081834 51 139 1.0 4.0 0.02 0.51 0.51 100 988.8
20240228081329 51 207 0.0 3.0 0.03 0.51 0.51 100 988.9
20240228080830 51 203 0.0 3.0 0.05 0.51 0.51 100 988.8
20240228080332 51 238 0.0 3.0 0.16 0.51 0.51 100 988.9
20240228075838 51 235 1.0 4.0 0.21 0.51 0.51 100 988.9
20240228075826 51 235 0.0 2.0 0.19 0.51 0.51 100 988.8
20240228075429 51 235 1.0 4.0 0.21 0.51 0.51 100 988.9
20240228075058 51 189 1.0 4.0 0.25 0.51 0.51 100 988.8
20240228074931 51 189 1.0 4.0 0.25 0.51 0.51 100 988.8
20240228074606 51 222 1.0 5.0 0.25 0.51 0.51 100 988.8
20240228074327 51 222 1.0 5.0 0.25 0.51 0.51 100 988.8
20240228073825 51 201 2.0 8.0 0.25 0.51 0.51 100 988.8
20240228073559 51 246 3.0 8.0 0.26 0.51 0.51 100 988.7
20240228073323 51 246 3.0 8.0 0.26 0.51 0.51 100 988.7
20240228072823 51 213 2.0 8.0 0.27 0.51 0.51 100 988.2
20240228072323 51 160 2.0 8.0 0.30 0.51 0.51 100 988.9
20240228071823 51 144 2.0 4.0 0.32 0.49 0.50 100 989.7
20240228071315 51 154 2.0 4.0 0.34 0.48 0.48 100 990.1
20240228070816 52 189 2.0 8.0 0.34 0.46 0.46 100 990.6
20240228070316 52 260 2.0 8.0 0.25 0.34 0.35 100 991.8
20240228070046 53 259 4.0 10.0 0.25 0.32 0.32 100 991.4
20240228065919 53 259 4.0 10.0 0.25 0.32 0.32 100 991.4
20240228065557 54 272 4.0 10.0 0.27 0.30 0.30 100 991.9
20240228065321 54 272 4.0 10.0 0.27 0.30 0.30 100 991.9
20240228064811 56 287 2.0 7.0 0.26 0.26 0.26 100 991.3
20240228064312 56 129 2.0 5.0 0.26 0.26 0.26 100 990.1
20240228063812 56 130 1.0 3.0 0.26 0.26 0.26 100 990.5
20240228063312 56 140 0.0 2.0 0.25 0.25 0.25 100 990.6
20240228062816 56 263 1.0 4.0 0.24 0.24 0.24 100 990.8
20240228062311 56 261 1.0 4.0 0.21 0.21 0.21 100 990.7
20240228061851 56 235 2.0 7.0 0.14 0.14 0.14 100 991.0
20240228061813 56 223 2.0 5.0 0.17 0.17 0.17 100 990.5
20240228061800 56 235 2.0 7.0 0.14 0.14 0.14 100 991.0
20240228060814 56 156 3.0 7.0 0.12 0.12 0.13 99 990.8
20240228060546 56 144 3.0 6.0 0.09 0.09 0.10 98 991.8
20240228060419 56 144 3.0 6.0 0.09 0.09 0.10 98 991.8
20240228055812 57 197 3.0 7.0 0.07 0.07 0.07 98 991.3
20240228055550 57 173 3.0 7.0 0.03 0.03 0.04 97 991.8
20240228055312 57 173 3.0 7.0 0.03 0.03 0.04 97 991.8
20240228054812 58 222 3.0 9.0 0.00 0.00 0.00 96 991.4
20240228054544 58 199 4.0 9.0 0.00 0.00 0.00 95 991.5
20240228054429 58 199 4.0 9.0 0.00 0.00 0.00 95 991.5
20240228053815 58 201 3.0 9.0 0.00 0.00 0.00 96 991.6
20240228053540 58 174 3.0 9.0 0.00 0.00 0.00 96 991.5
20240228053414 58 174 3.0 9.0 0.00 0.00 0.00 96 991.5
20240228052809 58 214 4.0 11.0 0.00 0.00 0.00 96 991.5
20240228052313 58 175 5.0 13.0 0.00 0.00 0.00 96 991.6
20240228052044 58 246 4.0 13.0 0.00 0.00 0.00 96 991.8
20240228051917 58 246 4.0 13.0 0.00 0.00 0.00 96 991.8
20240228051310 58 214 4.0 11.0 0.00 0.00 0.00 96 992.0
20240228051044 58 260 4.0 10.0 0.00 0.00 0.00 96 992.1
20240228050918 58 260 4.0 10.0 0.00 0.00 0.00 96 992.1
20240228050306 58 201 3.0 10.0 0.00 0.00 0.00 96 991.9
20240228045805 58 240 3.0 10.0 0.00 0.00 0.00 96 991.5
20240228045306 58 140 3.0 10.0 0.00 0.00 0.00 96 991.4
20240228044805 58 193 3.0 8.0 0.00 0.00 0.00 96 991.7
20240228044304 58 214 4.0 13.0 0.00 0.00 0.00 96 992.0
20240228044040 58 129 4.0 13.0 0.00 0.00 0.00 97 992.4
20240228043806 58 129 4.0 13.0 0.00 0.00 0.00 97 992.4
20240228043301 58 172 4.0 11.0 0.00 0.00 0.00 97 992.6
20240228042257 58 166 4.0 10.0 0.00 0.00 0.00 97 992.6
20240228041755 58 185 4.0 10.0 0.00 0.00 0.00 97 992.9
20240228041255 58 223 4.0 10.0 0.00 0.00 0.00 97 993.1
20240228041024 58 211 4.0 14.0 0.00 0.00 0.00 97 993.3
20240228040856 58 211 4.0 14.0 0.00 0.00 0.00 97 993.3
20240228040256 58 145 5.0 14.0 0.00 0.00 0.00 96 993.4
20240228035755 58 185 5.0 12.0 0.00 0.00 0.00 96 993.6
20240228035249 58 201 5.0 12.0 0.00 0.00 0.00 96 993.6
20240228034752 58 235 4.0 12.0 0.00 0.00 0.00 95 993.7
20240228034611 58 170 4.0 12.0 0.00 0.00 0.00 95 993.8
20240228034024 59 204 4.0 12.0 0.00 0.00 0.00 94 993.9
20240228033749 59 204 4.0 12.0 0.00 0.00 0.00 94 993.9
20240228033248 59 207 4.0 12.0 0.00 0.00 0.00 93 994.0
20240228032751 59 224 4.0 14.0 0.00 0.00 0.00 93 994.2
20240228032245 60 203 4.0 14.0 0.00 0.00 0.00 92 994.2
20240228032019 60 240 4.0 11.0 0.00 0.00 0.00 91 994.2
20240228031851 60 240 4.0 11.0 0.00 0.00 0.00 91 994.2
20240228031245 60 157 4.0 11.0 0.00 0.00 0.00 91 994.2
20240228030744 60 220 4.0 11.0 0.00 0.00 0.00 91 994.3
20240228030645 60 232 4.0 12.0 0.00 0.00 0.00 90 994.5
20240228030020 60 238 5.0 12.0 0.00 0.00 0.00 90 994.4
20240228025853 60 238 5.0 12.0 0.00 0.00 0.00 90 994.4
20240228025241 61 175 4.0 11.0 0.00 0.00 0.00 90 994.5
20240228024744 61 237 5.0 11.0 0.00 0.00 0.00 89 994.7
20240228024241 61 178 5.0 11.0 0.00 0.00 0.00 89 994.8
20240228023741 61 237 5.0 15.0 0.00 0.00 0.00 89 994.9
20240228023241 61 218 5.0 15.0 0.00 0.00 0.00 88 994.8
20240228022744 61 156 5.0 13.0 0.00 0.00 0.00 88 994.9
20240228022512 61 218 4.0 11.0 0.00 0.00 0.00 87 994.9
20240228022237 61 218 4.0 11.0 0.00 0.00 0.00 87 994.9
20240228021741 61 126 5.0 15.0 0.00 0.00 0.00 87 994.8
20240228021237 62 199 5.0 15.0 0.00 0.00 0.00 86 994.8
20240228021013 62 189 4.0 12.0 0.00 0.00 0.00 86 994.8
20240228020738 62 189 4.0 12.0 0.00 0.00 0.00 86 994.8
20240228020236 62 218 5.0 10.0 0.00 0.00 0.00 86 995.0
20240228015740 62 251 4.0 12.0 0.00 0.00 0.00 85 995.0
20240228015503 62 190 4.0 12.0 0.00 0.00 0.00 85 994.9
20240228015336 62 190 4.0 12.0 0.00 0.00 0.00 85 994.9
20240228014736 62 239 4.0 10.0 0.00 0.00 0.00 85 995.0
20240228014235 62 215 4.0 10.0 0.00 0.00 0.00 84 995.0
20240228013737 62 247 4.0 9.0 0.00 0.00 0.00 84 995.0
20240228013232 62 170 4.0 9.0 0.00 0.00 0.00 84 994.9
20240228012737 62 201 4.0 9.0 0.00 0.00 0.00 84 995.0
20240228012230 62 154 4.0 11.0 0.00 0.00 0.00 83 995.0
20240228012002 62 190 4.0 11.0 0.00 0.00 0.00 83 995.0
20240228011835 62 190 4.0 11.0 0.00 0.00 0.00 83 995.0
20240228011507 62 168 4.0 10.0 0.00 0.00 0.00 83 995.0
20240228011230 62 168 4.0 10.0 0.00 0.00 0.00 83 995.0
20240228010750 62 215 4.0 11.0 0.00 0.00 0.00 82 995.0
20240228010731 62 179 4.0 9.0 0.00 0.00 0.00 83 995.0
20240228010335 62 215 4.0 11.0 0.00 0.00 0.00 82 995.0
20240228005731 62 161 3.0 11.0 0.00 0.00 0.00 82 995.0
20240228005231 62 116 3.0 8.0 0.00 0.00 0.00 82 995.1
20240228005002 62 208 3.0 7.0 0.00 0.00 0.00 81 995.1
20240228004834 62 208 3.0 7.0 0.00 0.00 0.00 81 995.1
20240228004228 62 242 4.0 10.0 0.00 0.00 0.00 81 995.1
20240228003726 62 222 4.0 10.0 0.00 0.00 0.00 81 995.0
20240228003228 62 201 3.0 10.0 0.00 0.00 0.00 81 995.0
20240228002955 62 166 2.0 7.0 0.00 0.00 0.00 80 995.0
20240228002720 62 166 2.0 7.0 0.00 0.00 0.00 80 995.0
20240228002221 62 258 2.0 9.0 0.00 0.00 0.00 80 995.1
20240228001716 62 246 3.0 9.0 0.00 0.00 0.00 80 995.1
20240228001216 63 228 3.0 7.0 0.00 0.00 0.00 79 995.1
20240228000716 63 230 4.0 13.0 0.00 0.00 0.00 79 995.1
20240228000220 63 216 4.0 13.0 0.00 0.00 0.00 79 995.0
20240228000126 63 246 4.0 9.0 0.00 0.00 0.00 78 995.1
20240227235215 63 211 3.0 8.0 0.00 0.00 0.00 78 994.9
20240227234714 63 218 3.0 10.0 0.00 0.00 0.00 78 994.8
20240227234447 64 211 3.0 10.0 0.00 0.00 0.00 76 994.9
20240227234319 64 211 3.0 10.0 0.00 0.00 0.00 76 994.9
20240227233715 64 218 3.0 9.0 0.00 0.00 0.00 75 994.9
20240227233208 64 144 2.0 7.0 0.00 0.00 0.00 75 995.1
20240227232721 65 192 3.0 12.0 0.00 0.00 0.00 73 995.0
20240227232709 64 240 2.0 8.0 0.00 0.00 0.00 74 995.1
20240227232315 65 192 3.0 12.0 0.00 0.00 0.00 73 995.0
20240227231724 65 123 4.0 12.0 0.00 0.00 0.00 72 994.9
20240227231709 65 181 3.0 12.0 0.00 0.00 0.00 72 994.9
20240227231313 65 123 4.0 12.0 0.00 0.00 0.00 72 994.9
20240227230700 65 224 4.0 12.0 0.00 0.00 0.00 72 994.8
20240227230432 66 243 3.0 11.0 0.00 0.00 0.00 71 994.7
20240227230156 66 243 3.0 11.0 0.00 0.00 0.00 71 994.7
20240227225659 66 216 3.0 11.0 0.00 0.00 0.00 71 994.5
20240227225157 66 240 2.0 8.0 0.00 0.00 0.00 70 994.7
20240227224929 66 235 2.0 8.0 0.00 0.00 0.00 69 994.7
20240227224801 66 235 2.0 8.0 0.00 0.00 0.00 69 994.7
20240227224159 67 239 4.0 11.0 0.00 0.00 0.00 68 994.6
20240227223657 67 170 4.0 11.0 0.00 0.00 0.00 68 994.6
20240227223155 67 151 3.0 11.0 0.00 0.00 0.00 68 994.5